Location: Holbach
(51.5399°N, 10.6036°E)
Time: 10:58:47
(UTC+00:00)

Cosmos 1867 - Pass Details

Date: 18 September 2020
Orbit: 777 x 799 km, 65.0° (Epoch: 25 October)

Event Time Altitude Azimuth Distance (km) Brightness Sun altitude
Rises 18:25:01 0° 317° (NW) 3,314 7.9 -10.1°
Reaches altitude 10° 18:27:27 10° 316° (NW) 2,381 7.1 -10.5°
Maximum altitude 18:32:56 77° 232° (SW) 825 3.7 -11.3°
Drops below altitude 10° 18:38:23 10° 147° (SSE) 2,365 5.6 -12.1°
Enters shadow 18:38:37 - 147° (SSE) 2,459 5.7 -12.2°
